Wind_Speed
13 13 14 14 14 14 16 17 17 15 13 12 10 9 8 7 5 4 3 3 3 4 5 6 7 8 9 11 11 12 13 14 15 16 16 17 18 19 20 21 22 22 23 23 23 23 22 22 22 21 20 20 20 20 22 23 23 24 25 26 27 28 29 29 30 33 35 34 32 29 26 27 28 29 29 29 29 30 30 32 34 35 37 37 35
12 12 12 12 12 13 14 16 16 15 12 11 9 8 6 5 4 3 2 2 3 4 5 6 8 9 10 11 13 14 15 16 17 17 18 18 19 19 20 21 22 23 23 23 23 23 22 22 22 22 21 21 21 21 23 24 25 25 26 27 27 28 28 27 28 32 35 35 34 30 27 27 28 29 30 29 29 29 30 31 32 34 36 37 37
11 11 11 11 11 11 12 13 14 13 12 10 8 7 6 4 3 2 1 2 3 4 5 6 8 10 11 12 13 15 16 17 18 18 18 19 19 20 21 22 23 23 23 23 23 23 23 22 22 22 22 22 23 24 25 27 27 27 27 27 26 27 27 25 27 32 35 36 35 32 29 28 29 30 30 30 30 29 29 30 31 33 35 37 37
9 9 9 10 10 11 11 12 12 12 11 10 8 7 5 4 2 1 1 3 4 5 6 8 10 11 12 13 14 16 17 17 18 18 19 20 20 21 22 22 23 23 23 23 23 23 23 23 23 24 24 25 26 26 27 29 29 28 26 25 26 27 26 25 28 32 34 35 35 34 32 31 32 32 31 31 30 30 29 29 30 32 33 36 37
8 8 8 9 9 10 10 11 11 10 9 8 7 6 5 3 2 0 2 3 5 6 8 9 11 13 14 15 16 16 17 17 18 19 20 21 22 22 22 22 22 22 23 23 23 24 25 25 26 27 27 28 28 28 28 29 30 26 23 24 27 27 26 26 29 32 33 35 35 35 34 34 35 34 32 31 30 29 30 30 30 31 32 34 36
9 9 9 9 9 9 10 10 10 9 8 7 6 5 4 3 2 2 3 5 6 8 10 11 13 14 15 16 17 17 17 18 18 19 20 21 22 23 23 22 22 22 22 23 24 25 26 27 28 29 29 28 28 28 28 29 29 25 22 25 27 27 27 27 30 32 33 35 35 35 35 36 37 35 32 31 30 30 30 31 31 32 33 33 35
11 11 11 10 10 10 10 10 10 9 8 7 6 5 5 4 3 4 5 7 9 10 12 13 14 15 16 17 18 18 18 19 19 20 21 22 23 23 23 22 22 22 22 23 25 26 27 29 30 30 29 27 27 27 29 30 29 26 24 26 27 27 27 28 30 33 34 35 36 36 36 36 37 34 31 31 31 31 31 31 33 34 34 34 35
14 14 13 13 12 12 12 12 11 10 8 7 7 7 6 6 6 6 7 9 11 13 14 15 16 17 17 18 18 19 19 20 20 21 22 23 23 23 23 23 23 23 24 25 26 28 29 30 31 31 28 27 27 28 30 31 31 28 26 27 28 29 29 30 31 33 35 36 36 36 36 36 36 34 31 31 31 31 32 33 34 35 36 36 37
17 17 16 15 15 14 14 14 12 11 10 10 9 9 9 9 9 9 10 12 13 15 16 17 17 18 18 19 19 19 20 21 21 22 22 23 23 24 24 24 24 24 25 27 28 29 31 32 32 31 29 28 28 29 31 34 33 30 28 29 30 30 31 31 32 34 36 37 37 37 36 36 37 35 32 31 31 31 32 33 35 37 38 38 39
21 20 19 19 18 17 16 16 14 13 13 12 12 12 12 11 11 12 13 14 15 16 17 18 18 19 19 20 20 20 21 22 22 22 23 23 24 24 24 25 25 26 27 28 30 31 32 32 30 29 29 29 30 30 33 35 34 31 29 30 31 32 32 32 33 35 36 37 37 36 36 37 38 36 33 31 31 32 34 34 36 38 39 39 40
24 23 22 21 20 19 18 17 16 15 15 15 15 14 13 13 14 14 15 16 17 18 19 19 19 20 20 21 21 22 22 23 23 23 23 24 24 25 25 26 27 28 29 30 32 32 31 30 29 29 30 30 30 31 34 36 35 32 30 31 32 34 34 34 35 35 36 36 36 36 36 37 38 38 34 31 31 33 35 36 37 39 40 40 40
25 25 24 23 21 20 19 18 18 17 17 17 16 16 15 15 16 16 17 18 19 20 20 20 20 21 22 22 23 23 24 24 24 24 24 25 26 26 27 27 28 29 30 32 33 32 31 30 30 30 30 31 31 32 34 36 36 33 31 32 33 34 35 36 36 36 36 35 35 36 37 38 39 39 36 32 32 33 35 37 39 40 41 41 40
25 24 25 24 23 21 21 20 20 19 19 19 18 17 17 17 18 19 19 20 21 21 21 21 22 22 23 23 24 25 25 25 25 25 25 26 27 28 28 29 30 31 32 33 34 33 32 32 31 31 31 31 33 33 34 36 37 35 32 33 35 35 36 37 37 37 36 36 37 37 38 39 40 40 38 35 33 34 36 39 40 41 41 40 40
23 24 26 26 24 23 23 22 21 21 21 20 19 19 19 19 19 21 21 22 22 22 22 23 23 23 24 25 25 26 26 27 26 27 27 27 28 30 30 31 32 33 34 35 35 35 35 33 32 32 32 33 33 34 35 36 37 35 33 34 36 37 37 38 38 38 38 37 38 38 40 41 41 40 40 39 37 37 39 41 42 43 42 40 41
23 25 26 26 25 25 24 23 23 23 23 22 22 22 21 21 21 22 23 23 23 24 24 24 25 25 25 26 27 28 28 28 29 29 29 29 30 31 32 33 33 34 36 36 37 37 37 35 34 33 34 34 35 35 36 37 37 36 34 34 36 38 39 40 40 41 41 40 39 40 42 43 41 41 42 42 41 42 43 43 44 44 42 41 43
25 26 27 26 26 26 26 25 25 25 26 25 25 25 24 23 24 24 24 25 25 26 26 26 26 26 27 28 29 30 30 30 31 31 30 31 32 33 34 35 35 36 38 38 39 39 38 37 36 35 35 35 36 37 38 37 37 35 34 34 35 37 39 41 42 43 43 41 40 41 42 42 42 44 47 48 45 45 46 47 47 45 43 43 46
27 28 28 28 28 28 27 27 27 27 28 28 28 27 27 26 26 26 26 27 27 28 29 28 28 28 28 29 31 31 32 32 32 32 32 32 33 34 36 37 38 38 39 41 41 40 39 38 37 37 36 36 37 39 39 38 36 34 34 34 35 37 38 38 41 43 43 41 42 43 41 41 44 47 51 52 49 48 50 52 50 46 44 45 49
30 31 30 31 31 30 30 29 29 29 30 30 30 29 29 28 28 28 29 29 30 30 31 30 30 30 30 31 32 33 33 34 34 34 33 34 34 35 37 39 39 40 41 42 42 41 41 40 39 38 37 36 37 39 39 38 36 35 35 36 37 38 37 37 40 42 42 42 42 41 40 42 45 47 50 53 52 52 54 55 52 47 45 47 50
35 35 33 33 33 32 32 32 32 31 31 32 32 32 31 30 30 30 31 31 32 32 32 32 31 31 32 33 34 35 35 35 35 35 35 35 36 37 39 40 41 41 42 42 43 43 42 40 37 36 36 37 39 41 41 40 38 37 38 39 40 41 40 40 40 40 41 42 41 38 40 44 46 47 49 50 52 54 56 57 54 49 47 49 51
37 37 36 36 36 35 34 34 34 34 33 34 34 34 33 32 32 32 33 33 33 33 33 33 33 33 33 35 36 37 37 37 36 37 37 37 38 39 40 41 43 43 43 43 43 43 40 36 33 33 36 38 41 44 45 45 43 41 40 41 43 43 42 41 40 39 39 40 38 39 44 48 49 49 48 49 52 55 57 57 54 49 48 50 52
39 39 38 38 38 37 37 36 36 36 36 36 36 36 35 35 34 34 34 35 35 35 35 34 35 35 35 37 38 39 38 38 38 38 39 39 40 41 42 43 45 44 44 44 45 45 43 38 35 37 39 41 45 48 49 49 48 46 44 45 46 45 44 42 40 40 40 40 41 44 48 50 50 50 50 52 54 56 57 57 52 49 49 52 55
41 40 40 41 41 40 39 38 39 39 38 38 38 37 37 36 36 36 36 36 36 37 37 36 36 37 37 38 39 40 40 39 40 40 41 41 42 43 44 44 46 46 47 47 47 47 47 45 42 42 43 46 50 51 51 50 50 50 50 51 51 49 47 43 40 42 44 44 46 47 49 51 52 53 55 56 58 59 58 55 51 50 52 55 56
42 41 40 42 42 41 40 40 40 40 40 39 39 39 38 38 38 38 38 38 38 38 38 38 39 39 39 40 40 41 41 42 42 43 43 43 43 44 45 45 47 48 49 50 48 45 44 44 44 45 46 49 50 50 49 51 52 52 53 55 55 52 48 45 43 46 47 48 49 49 50 54 56 58 59 60 60 59 58 55 53 52 53 54 55
44 43 42 43 43 42 41 41 41 41 41 41 40 40 40 40 40 40 40 40 40 40 40 40 41 41 42 42 42 43 43 44 45 46 45 45 45 46 46 47 49 50 51 52 48 44 42 41 43 45 47 49 49 49 50 52 52 52 53 55 54 50 47 46 47 50 51 52 52 52 54 59 61 62 62 61 60 59 57 56 54 52 52 55 58
46 46 45 45 45 43 42 42 42 42 42 42 42 42 42 41 41 41 41 42 41 42 42 43 43 44 44 44 44 45 45 46 47 48 48 46 46 47 47 48 51 53 54 53 50 47 45 44 44 45 47 49 49 49 50 51 51 51 51 53 54 52 51 53 56 57 57 57 56 56 59 63 64 63 62 61 60 57 55 54 53 53 56 59 63
48 48 46 45 45 45 44 44 44 44 44 44 44 44 44 43 43 43 43 43 43 43 44 45 45 45 46 46 46 47 47 48 50 51 50 49 48 49 49 48 50 52 54 55 53 51 48 47 47 47 47 49 50 50 51 52 52 52 53 54 55 56 57 60 62 62 61 59 58 58 61 62 62 62 61 60 58 55 55 57 58 60 63 65 67
49 48 47 46 46 47 47 46 46 46 46 46 46 46 46 46 45 45 45 45 46 46 46 46 47 47 47 47 47 48 50 50 52 53 53 52 51 51 51 51 51 51 52 54 54 52 50 48 47 47 48 50 52 53 54 54 55 56 57 59 60 60 61 62 63 63 61 60 59 58 58 59 59 60 60 58 57 58 60 63 65 65 66 67 69
50 49 47 47 48 49 48 47 48 48 48 48 48 48 48 48 48 48 48 48 48 49 49 49 49 49 49 50 50 51 52 52 53 54 54 55 54 53 53 53 53 53 53 53 53 53 52 51 50 50 51 53 55 56 57 58 60 60 61 62 63 63 63 62 63 62 61 59 58 57 57 57 58 60 61 60 59 60 63 67 68 68 68 70 72
52 50 49 48 49 50 49 50 50 50 50 50 50 50 50 51 51 51 50 50 51 52 52 51 51 52 52 52 52 53 53 54 55 55 55 56 55 55 56 56 55 55 54 53 54 53 53 53 53 54 54 55 57 58 59 61 62 64 64 65 64 63 62 61 61 60 59 57 57 56 55 56 58 60 61 61 62 65 68 70 70 70 70 71 72
54 53 51 50 51 51 51 52 52 52 52 52 51 52 52 52 53 53 53 53 54 54 54 53 54 54 55 55 55 55 55 55 56 56 57 57 56 56 57 57 56 56 55 54 54 54 54 54 55 56 57 58 58 60 61 62 65 66 66 64 63 63 62 61 61 60 58 57 57 56 56 58 59 60 62 64 67 67 66 64 64 64 63 65 67
57 56 53 53 54 54 54 54 54 54 53 53 53 53 54 55 55 56 56 55 56 57 56 56 56 56 57 58 58 58 57 57 57 57 58 58 58 57 57 57 56 56 55 55 54 54 54 55 56 57 58 59 60 62 63 65 65 65 64 63 64 64 64 63 63 63 61 60 59 60 61 63 65 65 66 65 62 59 56 56 57 59 60 63 67
59 57 54 54 56 56 56 56 56 55 54 55 55 55 56 58 58 58 58 58 59 59 59 58 58 59 60 61 61 61 60 59 59 58 58 59 59 58 58 57 57 56 56 56 55 55 55 55 56 57 58 60 62 64 64 65 64 62 62 63 64 64 65 64 64 65 65 64 64 64 65 67 69 70 69 63 55 54 59 64 66 67 67 69 71
60 57 56 56 58 58 58 57 56 57 57 57 57 58 59 60 60 61 61 61 61 61 61 61 60 61 62 63 64 63 61 61 60 60 60 60 60 59 59 59 58 58 57 57 56 55 55 56 57 58 60 61 63 64 63 63 61 60 61 62 62 64 64 63 64 66 68 68 69 69 71 72 72 72 72 67 61 61 67 73 75 74 71 71 74
61 59 58 59 61 61 60 58 57 58 58 58 59 61 62 62 63 63 62 62 62 63 64 64 63 63 64 65 65 64 63 63 62 62 61 61 61 61 60 60 59 59 59 58 58 57 56 57 58 60 62 62 63 64 63 61 60 59 60 63 64 64 63 62 64 67 68 70 72 73 75 76 77 76 74 73 72 71 71 72 73 71 71 73 78
63 62 59 61 63 63 62 61 61 59 59 60 62 64 64 64 65 65 64 63 64 64 65 66 66 66 67 68 67 66 65 65 65 64 63 62 63 63 62 61 61 60 60 60 59 58 58 59 60 61 63 63 63 63 61 59 58 60 63 65 66 66 64 65 67 69 70 72 74 75 76 77 78 77 76 76 73 67 63 66 71 74 77 81 86
66 65 62 63 66 65 64 65 64 62 61 62 64 65 65 65 66 67 67 66 66 66 67 67 67 68 69 69 69 69 68 69 68 67 66 65 65 65 64 63 63 62 61 61 60 60 60 61 61 63 64 64 63 62 60 59 59 62 65 67 67 67 67 68 69 70 72 74 75 75 76 76 75 75 75 74 67 60 62 69 75 80 83 86 89
69 69 67 67 68 68 69 70 67 64 63 64 65 66 66 67 68 69 69 68 68 68 68 69 69 70 70 71 71 71 72 72 71 69 68 68 68 67 66 65 65 64 62 61 62 62 62 63 63 65 66 66 64 63 62 62 62 65 68 70 69 69 70 71 72 72 73 73 74 74 74 74 74 74 75 74 70 69 72 76 79 82 85 88 90
74 73 71 70 70 71 73 73 70 67 66 65 66 67 68 69 70 71 71 70 70 70 70 71 71 71 71 72 73 73 74 74 73 71 71 71 70 69 68 67 66 65 64 64 64 65 66 66 66 67 68 68 66 66 66 66 67 70 72 73 73 74 75 76 77 78 78 77 76 75 73 72 73 74 75 74 73 75 77 78 80 83 85 86 89
77 76 74 73 72 72 75 75 73 70 69 67 68 68 70 71 72 73 72 72 72 72 73 73 73 73 73 74 74 75 75 75 73 72 72 72 72 71 69 68 67 66 66 66 66 68 69 69 69 70 71 70 69 70 70 71 72 74 75 76 77 78 79 80 80 81 82 81 79 77 75 74 73 72 71 72 73 75 77 79 81 83 84 86 89
80 79 76 75 74 74 76 77 75 73 72 70 69 70 72 73 74 74 73 73 73 74 75 75 74 74 75 75 76 76 76 76 75 74 74 73 71 70 70 69 68 67 68 68 68 70 71 72 72 73 73 72 71 71 72 73 74 76 77 79 80 80 80 81 81 82 81 80 78 77 76 75 71 67 66 68 71 74 77 79 80 82 85 87 88
82 80 77 77 77 77 77 78 78 77 75 73 71 72 74 75 75 75 74 74 75 75 76 76 75 75 76 76 77 77 78 78 76 74 73 71 70 70 70 70 69 68 69 70 70 72 73 73 74 74 74 72 72 72 73 74 75 77 79 80 82 82 82 82 83 82 80 78 78 78 76 73 69 67 68 71 72 74 76 78 80 82 84 86 88
84 82 80 80 81 79 78 79 80 81 79 75 74 75 76 76 76 76 75 75 76 76 76 76 76 76 76 77 77 78 77 75 71 71 71 71 70 71 71 71 70 70 71 71 72 73 74 74 75 75 74 74 73 72 73 75 77 79 81 82 83 83 83 84 84 83 82 80 79 78 75 73 72 74 76 76 76 76 77 78 79 81 83 85 87
86 85 84 83 82 81 80 80 82 83 81 78 77 77 77 77 77 77 77 77 77 77 77 77 76 76 76 77 77 76 73 70 71 73 73 72 72 72 72 72 71 71 72 73 73 74 75 75 76 75 75 75 74 74 75 77 79 81 83 84 84 84 85 85 85 84 83 82 80 78 77 78 79 81 80 79 78 77 77 78 79 80 81 82 82
89 87 86 84 83 83 82 82 83 84 83 81 79 78 78 78 78 78 78 79 78 78 77 76 76 76 77 77 76 74 71 71 74 75 74 74 73 73 72 72 72 72 72 74 74 75 75 75 76 76 77 77 77 76 77 79 82 83 84 85 85 86 87 87 86 85 84 83 82 81 82 82 82 81 80 78 77 77 77 77 77 77 77 78 78
90 88 86 85 84 84 84 83 84 84 84 82 81 80 79 79 79 79 80 80 79 78 78 76 76 77 77 75 73 72 72 73 75 76 75 75 75 74 73 73 72 72 73 74 75 76 75 75 76 77 78 79 80 80 81 83 85 86 86 87 87 88 88 88 88 87 86 85 84 84 83 83 82 81 79 76 75 75 75 75 75 75 76 77 79
91 89 87 86 84 84 84 84 84 83 83 83 82 81 81 80 80 80 80 80 79 78 77 76 76 75 74 72 72 72 74 76 76 76 76 76 75 75 74 73 72 73 74 75 76 76 76 76 77 78 79 80 81 82 84 86 87 88 88 88 89 90 90 90 89 88 87 85 85 84 84 83 81 78 75 74 73 73 74 75 75 76 78 79 81
90 89 88 86 85 84 83 84 83 83 83 83 83 82 81 81 81 81 81 80 79 78 77 77 76 74 73 72 72 73 75 76 76 76 76 76 76 76 75 73 74 74 76 77 77 77 77 78 79 80 81 81 82 84 86 87 88 89 90 90 90 92 92 92 90 88 86 85 85 85 83 80 77 75 74 73 73 74 75 77 78 79 80 81 83
89 88 87 85 84 84 83 83 83 83 83 83 82 81 80 80 81 81 81 80 79 78 77 77 76 74 72 72 73 73 73 75 76 76 77 77 77 76 76 75 76 76 77 78 79 78 79 80 81 82 83 83 83 84 86 87 89 90 91 92 93 93 93 91 89 87 86 86 85 83 79 76 75 75 75 75 75 75 77 79 80 82 83 84 84
88 87 86 85 84 84 83 83 83 83 82 82 81 80 80 80 81 81 81 80 80 79 78 76 75 75 74 73 73 72 73 75 77 76 77 77 78 78 77 77 78 79 79 79 79 80 81 82 83 83 84 84 85 86 87 89 91 92 92 94 94 93 92 90 88 87 86 85 82 80 77 75 75 76 78 78 78 78 79 81 83 84 85 86 86
88 86 85 84 83 83 83 83 83 82 82 81 80 80 80 80 81 82 82 81 81 80 78 77 76 76 74 72 72 73 75 76 77 77 77 78 79 79 79 79 80 80 80 79 80 82 83 83 84 84 85 86 87 88 89 91 92 93 94 94 93 92 90 90 89 87 85 82 79 77 76 76 76 78 80 81 82 82 83 84 85 86 86 87 86
87 86 85 84 83 83 83 83 82 82 81 81 81 81 80 80 81 82 82 81 81 80 79 78 77 75 72 70 72 75 76 76 77 77 78 78 79 79 80 80 80 80 79 80 83 84 85 85 85 86 86 87 88 90 91 92 93 93 93 93 92 91 90 89 88 86 83 80 78 77 77 78 79 80 82 83 84 85 85 85 85 85 85 84 83
Wind_Direction
148 147 146 145 147 151 156 160 162 161 159 155 152 151 150 147 142 129 110 84 68 55 46 38 28 20 14 10 6 2 358 357 356 355 354 354 354 353 352 350 350 349 348 347 347 347 347 347 346 346 345 343 343 339 333 334 335 333 333 332 333 336 341 346 353 358 357 354 350 346 344 345 348 350 350 349 349 350 351 352 355 358 3 7 6
151 151 151 150 149 152 157 163 168 171 172 170 169 166 163 161 156 140 103 67 48 41 32 23 16 8 2 359 357 355 353 352 352 351 350 350 350 349 347 346 346 345 345 344 344 344 344 343 343 342 342 341 340 337 336 336 335 333 333 334 335 339 342 346 353 358 359 358 356 352 348 346 347 349 348 348 349 350 350 350 352 355 359 3 5
161 162 164 164 162 162 163 168 173 177 181 183 182 181 177 173 163 146 74 31 18 15 11 6 0 354 352 351 350 349 348 348 347 347 347 347 347 347 345 344 343 343 343 342 342 343 342 342 342 341 340 339 338 337 337 336 335 334 334 337 339 341 342 345 350 353 355 356 358 357 355 351 349 348 347 348 348 349 350 351 351 353 356 360 3
172 174 176 178 178 178 177 179 182 186 189 190 190 188 184 178 170 146 13 0 353 346 345 345 343 343 342 343 344 344 344 344 343 344 345 345 345 345 344 343 342 342 342 342 342 342 342 342 341 340 338 337 335 335 336 337 337 335 337 341 343 343 342 341 343 346 349 352 356 356 356 354 350 348 346 347 349 350 350 350 351 352 354 357 360
185 191 193 195 194 192 190 189 190 191 191 191 190 189 187 186 184 229 329 329 326 325 326 330 332 334 335 338 339 340 340 340 340 341 342 343 344 343 343 342 341 341 341 341 340 340 340 340 339 337 335 334 333 333 334 335 336 337 339 343 344 343 340 337 337 341 344 348 350 352 352 353 351 348 346 346 346 348 349 349 350 350 352 353 356
202 207 210 211 210 207 202 199 197 194 194 195 196 197 199 203 223 272 299 304 308 312 317 322 326 328 330 333 334 335 335 336 336 337 339 340 342 341 341 340 340 339 339 338 338 338 337 337 336 335 334 333 333 333 333 334 335 334 336 339 341 341 338 334 334 336 339 342 344 346 347 349 350 348 345 345 344 344 345 346 347 347 348 349 349
220 222 222 223 221 219 215 210 208 207 206 208 212 218 224 233 252 273 289 297 302 307 314 318 321 324 327 329 330 331 332 333 333 335 337 338 339 339 339 338 338 337 336 336 335 335 335 334 334 333 332 333 335 336 337 336 334 331 330 333 336 337 335 333 332 333 334 336 339 341 343 345 347 346 343 342 342 342 343 343 344 346 348 348 346
235 234 232 231 230 227 226 222 220 220 222 223 228 235 244 252 263 275 286 294 301 306 311 316 318 321 324 326 327 329 329 329 331 332 335 336 336 337 337 337 336 335 334 334 334 333 332 331 332 331 329 329 334 336 337 337 334 329 326 328 332 333 333 331 331 330 330 332 333 336 339 342 343 343 339 337 337 339 341 342 342 344 346 347 347
243 242 239 237 236 233 232 229 226 226 230 233 237 243 250 258 266 275 285 292 300 305 310 315 318 320 322 324 325 326 327 327 328 331 333 334 334 335 335 335 335 334 333 333 332 332 330 329 329 329 326 324 327 331 334 335 333 328 323 324 328 330 331 331 330 329 328 328 329 331 335 338 340 340 336 332 332 333 335 337 339 341 342 343 346
247 245 243 241 239 236 235 233 229 228 233 238 242 246 253 260 268 277 287 294 300 305 310 314 317 320 321 322 323 323 324 324 325 328 330 332 333 333 332 333 334 334 333 332 330 329 329 329 327 326 325 322 321 324 328 333 333 329 324 323 326 328 329 330 330 329 326 325 324 326 331 334 336 338 335 330 328 329 330 331 333 337 338 339 342
251 250 248 246 243 241 238 235 232 230 235 241 246 251 257 264 273 282 290 296 301 306 310 313 316 318 320 321 321 321 322 322 324 326 328 330 331 331 331 331 331 332 332 330 328 326 326 327 325 322 321 320 319 319 323 329 333 330 325 323 324 325 327 329 329 327 324 322 321 322 327 330 334 337 335 329 324 324 327 328 330 332 333 334 337
251 253 253 252 249 246 244 241 240 238 240 245 250 256 263 271 279 287 293 298 302 305 308 311 314 317 319 319 320 320 320 320 322 324 326 327 328 329 330 330 330 329 329 328 326 324 323 322 320 317 317 318 318 318 320 326 331 329 324 323 322 322 325 326 326 324 322 320 319 320 323 327 331 334 334 329 323 320 321 324 326 327 329 329 331
246 251 252 252 250 248 246 247 248 248 250 253 257 262 268 276 283 289 293 297 300 303 306 309 313 316 318 319 319 319 319 319 320 321 323 325 326 327 328 329 328 327 326 325 324 323 320 317 315 313 314 317 318 318 320 325 328 327 323 321 320 320 321 322 323 322 321 319 318 317 319 323 327 331 331 328 324 321 321 322 323 323 324 324 325
239 246 246 248 249 250 251 252 253 256 259 262 266 269 273 278 283 288 292 295 298 301 304 307 310 313 316 318 318 317 317 317 318 319 321 323 324 325 327 326 325 324 323 323 322 321 318 315 312 310 312 316 318 319 321 323 325 324 321 319 318 317 317 317 319 320 319 319 317 316 317 320 323 326 328 327 325 323 322 321 321 321 320 319 320
237 243 245 248 250 251 254 257 259 261 265 269 271 273 276 279 282 286 290 293 297 299 302 304 307 311 314 316 316 315 315 315 315 317 318 321 323 324 324 323 322 322 321 321 320 319 317 313 310 309 312 316 317 319 320 321 323 322 319 318 315 313 312 312 314 317 317 317 316 316 318 319 320 321 322 323 322 322 322 321 320 319 316 315 315
236 243 249 251 251 252 255 259 261 264 268 271 274 275 277 279 281 285 288 292 295 297 300 302 305 309 312 314 314 313 313 312 313 315 318 321 323 322 321 320 320 321 320 319 319 318 315 312 309 309 312 315 316 318 319 319 319 317 316 316 314 310 308 308 309 312 313 314 315 317 319 318 317 316 316 317 318 319 321 321 320 317 313 311 312
238 244 248 250 252 254 257 259 261 264 268 271 273 276 278 279 281 284 288 291 293 295 298 300 304 308 311 312 311 310 310 309 311 314 318 321 321 320 319 318 319 319 318 317 317 316 314 310 308 307 308 311 313 317 321 320 316 313 312 314 315 312 309 304 304 307 309 311 314 317 319 317 315 313 312 313 314 315 318 320 319 316 311 309 309
244 246 247 249 251 254 257 259 261 264 267 270 272 275 277 279 282 284 287 290 292 293 296 299 302 306 308 309 308 307 307 308 310 314 317 319 318 317 316 316 317 316 315 315 315 314 312 309 306 304 303 307 313 318 322 320 315 312 312 312 312 312 309 303 303 305 306 309 314 317 317 313 310 311 311 311 312 312 313 316 317 314 309 307 306
246 248 248 249 251 253 256 258 261 263 266 268 271 274 276 279 281 284 286 288 290 293 295 298 301 304 306 306 305 304 305 307 310 314 316 316 315 314 314 315 315 314 314 315 315 314 311 307 305 302 301 308 315 318 319 317 314 313 312 311 311 311 307 303 304 305 305 308 312 312 309 305 305 307 309 309 309 309 310 313 314 311 308 305 303
247 249 249 250 252 253 256 258 260 263 265 268 271 274 276 279 281 283 285 287 289 292 294 297 300 302 303 303 302 301 304 307 310 313 314 314 313 313 313 313 312 313 315 316 315 315 313 308 306 305 305 308 312 314 316 316 314 313 311 311 312 310 306 302 302 303 304 304 304 301 299 300 302 304 305 304 305 306 309 311 309 307 304 301 301
247 250 250 251 252 254 256 259 262 264 267 269 271 274 276 278 280 281 283 285 288 290 293 296 298 300 300 300 300 301 304 308 309 310 311 312 312 311 311 312 313 314 315 316 315 315 312 307 305 307 306 307 310 312 315 316 316 314 312 313 312 309 306 302 299 300 300 297 294 294 295 298 300 301 300 301 304 306 309 308 305 301 299 297 298
247 249 252 253 254 255 257 259 262 265 267 269 271 273 275 277 279 280 283 285 287 289 292 294 295 297 297 298 299 302 305 307 308 308 309 310 310 308 309 311 313 313 314 315 314 312 308 304 303 306 307 308 310 312 312 313 314 314 312 312 312 310 307 303 297 296 296 294 293 294 294 295 296 297 299 302 305 307 307 304 300 296 294 294 295
248 250 253 255 255 256 258 260 262 265 266 268 270 272 274 276 278 281 283 285 287 288 291 292 294 295 295 297 299 303 305 307 307 307 307 307 307 306 308 311 312 312 311 314 315 313 309 306 304 305 307 307 308 309 309 309 310 311 310 310 311 309 305 300 295 293 294 294 295 295 294 294 296 298 300 303 305 305 303 300 297 293 292 292 293
249 250 250 253 256 258 259 261 263 265 266 268 270 272 274 276 279 281 283 285 286 288 290 291 293 294 295 297 300 303 304 305 305 305 304 304 304 305 307 309 310 310 310 312 313 312 310 307 303 302 302 303 305 306 305 306 308 309 309 308 307 305 302 298 295 294 295 295 295 295 294 295 298 301 302 303 303 302 299 296 294 292 290 291 293
248 249 249 252 255 259 260 262 264 266 268 269 271 272 275 276 278 280 282 284 285 287 289 291 292 293 295 297 300 302 303 303 303 302 301 302 303 304 306 308 309 309 310 311 310 308 306 304 301 299 299 301 303 304 304 306 307 308 307 304 300 298 297 296 295 296 296 295 295 295 295 297 301 303 302 302 302 299 295 293 291 290 289 290 292
248 250 251 253 256 259 261 264 266 267 269 270 272 273 275 277 278 280 282 283 285 286 287 288 290 292 294 296 299 300 301 301 300 300 301 302 303 303 304 306 307 308 309 309 309 307 305 302 300 299 299 301 304 305 306 306 307 307 306 303 300 298 297 296 296 296 296 295 295 294 295 298 301 301 301 300 298 293 290 289 289 289 289 289 290
250 252 253 255 257 259 261 264 266 268 269 271 272 274 276 277 278 280 281 283 284 285 286 287 289 291 293 295 297 298 298 298 299 299 300 301 302 302 304 306 307 307 307 306 306 305 304 302 301 300 301 303 305 307 308 309 309 308 307 306 304 303 302 300 299 298 297 296 295 295 296 297 298 299 299 296 292 289 287 288 290 290 290 289 289
252 253 254 255 257 259 261 263 265 267 269 270 272 274 275 277 278 280 281 282 283 284 285 287 289 290 291 293 294 295 296 296 297 298 299 300 301 302 304 306 307 307 306 305 304 303 302 302 301 301 301 303 305 308 309 309 309 308 308 307 306 305 304 303 301 299 297 296 295 295 295 295 296 296 294 292 290 288 288 289 290 290 289 289 290
252 254 254 256 257 259 261 263 264 266 267 269 271 273 275 277 278 279 280 282 283 283 285 286 287 288 289 291 292 293 294 295 295 297 297 298 300 302 304 306 306 306 305 304 303 303 302 301 301 301 301 303 304 306 307 307 308 308 308 307 305 304 303 303 302 299 297 294 292 293 293 294 294 294 293 292 291 291 290 290 290 290 290 290 291
251 252 253 255 257 259 260 262 264 265 267 269 271 272 274 276 277 278 280 281 282 283 284 285 286 288 289 290 291 292 293 293 294 295 296 297 299 301 303 304 305 305 304 304 303 302 301 300 301 301 302 303 304 305 306 307 308 308 307 306 305 304 303 302 301 299 296 293 290 289 289 290 291 291 292 294 295 295 294 291 290 291 291 292 292
249 251 253 254 256 258 260 261 263 264 266 268 270 272 274 275 276 277 279 280 281 281 283 284 286 287 289 290 290 291 291 292 293 294 295 296 297 299 301 302 302 303 303 303 302 301 300 300 300 301 302 303 305 306 307 307 307 307 306 305 304 303 302 302 301 299 297 294 291 289 288 288 288 289 292 297 300 300 296 292 292 294 294 294 295
248 250 252 255 256 258 259 260 262 264 266 268 270 272 273 274 275 277 278 279 280 281 282 284 286 287 288 289 289 290 291 291 292 292 293 294 296 298 299 300 301 301 302 301 301 300 300 300 300 301 303 305 306 307 307 307 306 305 304 304 303 303 303 302 300 299 297 296 293 291 289 288 288 289 291 294 294 290 288 290 292 295 296 295 295
248 250 252 254 256 257 259 260 262 263 265 267 269 270 272 273 274 276 277 278 280 282 283 284 285 286 286 287 287 288 289 290 290 291 292 293 296 298 299 300 301 301 301 301 300 300 300 301 302 303 305 307 308 308 307 307 305 303 305 306 305 304 304 302 300 298 297 295 294 292 290 289 289 289 290 290 288 285 286 289 290 291 292 292 292
249 250 252 253 255 257 258 259 260 262 263 266 268 269 270 272 273 274 275 277 279 281 282 283 284 284 285 285 286 287 288 289 290 291 292 294 297 298 299 301 301 302 302 301 301 301 302 303 304 306 307 308 309 308 308 308 306 305 306 308 306 305 304 302 300 299 297 296 295 294 293 292 291 290 290 289 289 289 290 288 287 287 287 287 289
251 251 252 254 255 256 257 257 259 261 263 264 266 268 269 271 272 273 275 276 278 279 280 281 282 283 284 285 286 287 288 289 290 291 293 295 297 298 300 301 302 302 302 302 302 302 303 305 306 307 307 308 309 309 309 308 307 306 306 307 307 305 304 302 301 300 299 298 297 296 295 294 293 293 292 291 291 290 286 282 282 283 284 286 288
253 252 251 252 254 256 257 257 258 260 261 263 265 267 269 270 272 273 275 275 276 277 279 280 281 282 284 285 287 288 289 290 291 293 295 297 298 299 301 302 302 302 302 302 302 303 305 306 307 307 307 309 309 309 308 307 306 305 305 306 307 306 304 303 302 301 300 300 299 298 296 295 294 293 293 292 290 285 278 277 280 282 284 287 289
249 249 248 249 251 253 256 257 258 258 259 261 263 266 268 270 271 272 273 274 275 277 278 279 280 282 284 286 287 289 290 291 292 295 297 298 299 301 302 303 303 303 303 303 303 304 305 306 307 307 308 309 308 307 306 306 304 303 303 305 306 306 306 305 305 305 304 303 301 300 298 297 295 294 293 291 288 284 282 282 283 285 286 288 290
245 247 248 248 249 251 254 256 257 258 258 260 262 264 266 268 269 271 272 273 275 276 278 279 280 282 284 286 287 289 290 292 294 296 297 298 300 301 302 303 304 304 304 304 304 305 305 306 307 307 307 308 307 306 306 306 305 305 306 307 308 309 309 308 308 308 307 306 305 303 301 299 297 296 295 293 289 287 286 286 286 287 289 290 291
244 246 247 248 249 250 253 255 256 257 258 259 260 262 264 266 267 269 271 273 275 276 277 279 281 282 284 286 287 289 290 292 294 295 297 298 300 301 301 302 303 303 303 304 304 304 305 306 306 307 307 308 307 307 307 308 308 308 308 309 310 310 310 309 309 308 307 307 306 304 303 302 300 298 296 293 290 288 288 288 289 289 290 291 292
244 244 245 247 248 249 251 254 255 256 256 257 258 260 262 264 266 267 269 272 274 275 277 278 280 282 284 285 287 288 290 291 293 294 296 297 299 300 300 301 302 302 302 302 303 303 304 305 306 307 307 307 307 307 308 308 308 308 308 308 309 308 308 307 306 306 306 305 304 303 302 302 301 299 296 294 293 291 292 292 292 292 292 293 293
244 245 246 246 247 248 250 252 254 255 255 256 257 259 260 262 264 266 268 270 272 274 276 278 280 281 283 285 287 288 290 291 292 294 295 296 297 298 299 301 301 301 301 301 302 302 303 304 305 306 306 306 306 306 307 307 306 306 306 306 306 306 306 305 305 305 305 303 302 301 300 300 300 299 298 297 295 294 294 294 293 293 293 293 293
245 246 246 246 247 248 249 251 253 255 256 256 257 258 260 262 264 266 268 269 271 273 275 277 279 281 284 285 287 289 291 292 291 292 294 296 298 299 299 300 300 300 300 300 300 301 302 303 304 304 304 304 305 305 305 305 304 304 304 305 305 305 305 304 305 305 304 303 302 301 300 298 298 298 298 297 295 293 293 292 291 291 292 292 292
244 245 246 247 248 250 250 251 253 255 257 258 258 259 261 263 265 266 268 269 271 273 275 277 280 282 284 285 287 289 290 289 287 290 294 296 297 298 297 298 298 298 298 299 300 301 302 302 302 302 303 303 303 303 303 302 302 303 303 304 304 304 304 304 304 304 303 302 302 301 300 299 298 297 297 297 296 295 294 293 293 293 293 294 295
244 246 247 248 250 251 252 253 254 256 258 260 261 262 263 264 266 267 269 270 272 274 276 279 281 282 283 285 286 287 287 285 286 290 293 295 295 295 295 295 296 296 297 298 299 300 301 301 301 301 302 302 302 302 301 301 301 302 303 303 303 303 303 303 303 303 302 302 302 302 301 301 300 299 299 299 298 297 297 297 297 298 298 298 299
245 246 247 248 250 252 253 255 256 258 260 262 263 264 265 266 267 268 270 271 273 275 277 279 280 281 283 285 286 286 285 285 286 289 292 293 293 293 293 294 294 295 296 297 298 299 299 299 300 301 301 301 301 301 301 300 301 302 303 303 303 303 303 303 303 303 303 303 303 303 303 303 302 301 301 300 300 299 299 300 300 301 301 301 301
246 247 248 249 250 252 254 256 257 259 261 263 264 265 266 267 269 270 271 272 274 275 277 278 279 281 282 284 284 284 284 283 285 287 289 290 291 291 292 293 293 294 295 297 297 298 298 298 299 299 299 299 299 300 300 301 301 302 303 303 302 302 302 303 303 304 304 304 304 304 304 304 303 302 302 301 301 301 302 302 302 302 302 301 301
245 247 248 249 251 252 254 256 258 259 261 262 264 265 267 268 269 270 271 272 273 275 276 278 279 279 280 280 281 282 282 282 284 286 288 289 290 291 291 292 293 294 295 296 296 296 297 297 298 298 297 298 299 299 300 301 301 302 302 302 302 302 303 304 304 304 305 305 305 305 305 304 303 303 302 302 302 302 303 303 302 302 302 302 301
245 247 249 250 251 252 254 255 257 258 260 262 263 265 267 268 269 270 271 272 273 274 275 277 278 279 279 279 280 281 281 282 284 286 287 289 290 291 291 292 293 294 294 294 295 295 296 296 297 297 297 298 298 299 300 300 301 301 301 301 302 303 304 305 305 305 305 305 305 305 305 304 303 303 303 303 303 303 303 303 303 303 303 302 302
245 247 248 250 251 252 254 255 256 258 260 261 263 265 266 268 269 270 271 272 273 274 275 276 277 277 278 279 280 280 280 282 284 286 287 288 289 290 291 291 292 293 293 293 294 294 295 296 296 296 297 298 298 299 299 299 300 300 300 301 303 304 304 305 305 305 305 305 305 305 305 304 304 303 303 304 304 305 305 305 304 304 303 302 302
245 247 248 250 251 252 254 255 257 258 260 262 264 265 266 268 270 271 272 273 275 275 275 275 276 277 278 278 278 278 279 282 284 286 287 288 288 289 289 290 291 292 292 292 293 294 295 295 295 296 297 298 298 299 299 299 299 300 301 302 303 304 304 305 305 305 305 305 304 304 304 304 304 304 305 305 306 306 306 305 304 303 302 302 302
245 247 248 250 251 253 254 256 258 259 261 263 264 266 267 269 270 271 272 274 274 275 275 276 276 277 277 277 276 278 280 282 284 285 286 286 287 287 288 289 290 291 291 291 293 294 294 295 295 296 297 298 298 298 298 299 300 301 302 303 303 304 304 305 305 305 305 304 304 303 303 304 305 306 306 306 306 306 305 304 303 302 301 301 301
Height
10986 10986 10986 10986 10986 10986 10986 10986 10987 10987 10988 10988 10988 10988 10989 10989 10989 10988 10988 10988 10988 10988 10987 10987 10987 10986 10986 10985 10984 10984 10983 10982 10981 10980 10979 10977 10976 10975 10974 10973 10971 10970 10969 10968 10966 10965 10964 10963 10962 10961 10960 10958 10957 10957 10957 10953 10951 10949 10946 10944 10942 10940 10938 10937 10935 10932 10930 10927 10925 10923 10921 10919 10918 10916 10914 10913 10912 10910 10908 10906 10905 10903 10902 10900 10898
10987 10987 10987 10987 10987 10987 10987 10987 10987 10988 10988 10988 10988 10989 10989 10989 10989 10988 10988 10988 10988 10987 10987 10987 10986 10986 10985 10984 10984 10983 10982 10981 10980 10979 10978 10977 10976 10974 10973 10972 10970 10969 10968 10966 10965 10964 10963 10962 10960 10959 10957 10956 10955 10954 10953 10951 10949 10947 10945 10943 10941 10939 10937 10935 10933 10932 10930 10927 10925 10922 10920 10918 10916 10914 10913 10911 10910 10908 10907 10905 10903 10902 10900 10898 10896
10987 10987 10988 10988 10988 10988 10988 10988 10988 10988 10988 10988 10988 10988 10988 10988 10988 10988 10988 10988 10988 10987 10987 10986 10986 10985 10985 10984 10983 10982 10981 10980 10979 10978 10977 10976 10975 10974 10972 10971 10969 10968 10966 10965 10964 10962 10961 10960 10958 10957 10955 10954 10953 10952 10950 10948 10946 10945 10943 10941 10939 10937 10935 10933 10932 10931 10929 10927 10924 10922 10920 10918 10915 10913 10911 10910 10908 10907 10906 10904 10902 10900 10899 10897 10895
10987 10987 10988 10988 10988 10988 10988 10988 10988 10988 10988 10988 10988 10988 10988 10988 10988 10988 10988 10987 10987 10987 10986 10986 10985 10985 10984 10983 10983 10982 10980 10979 10978 10977 10976 10975 10974 10973 10971 10970 10968 10967 10965 10963 10962 10960 10959 10957 10956 10955 10953 10952 10950 10949 10947 10945 10944 10942 10940 10939 10937 10935 10933 10932 10931 10929 10927 10925 10923 10921 10919 10917 10915 10913 10910 10908 10907 10905 10904 10903 10901 10899 10897 10895 10893
10987 10987 10987 10987 10988 10988 10988 10988 10988 10988 10988 10988 10988 10988 10988 10987 10987 10987 10987 10987 10987 10986 10986 10985 10985 10984 10983 10983 10982 10981 10979 10978 10977 10976 10975 10974 10973 10971 10970 10969 10967 10965 10964 10962 10960 10959 10957 10955 10954 10952 10951 10949 10948 10946 10944 10943 10941 10940 10938 10937 10935 10933 10931 10930 10929 10927 10925 10923 10921 10920 10918 10916 10914 10911 10909 10907 10906 10904 10902 10901 10899 10898 10896 10894 10892
10986 10987 10987 10987 10987 10987 10987 10988 10988 10988 10988 10988 10988 10987 10987 10987 10987 10987 10987 10987 10986 10986 10986 10985 10984 10983 10982 10982 10980 10979 10978 10977 10976 10975 10974 10973 10971 10970 10969 10967 10966 10964 10963 10961 10959 10957 10956 10954 10952 10951 10949 10947 10945 10944 10942 10940 10939 10937 10936 10934 10933 10931 10929 10928 10926 10925 10923 10921 10919 10918 10916 10914 10912 10909 10908 10906 10904 10902 10900 10899 10897 10896 10894 10892 10890
10986 10986 10987 10987 10987 10987 10987 10987 10987 10987 10987 10987 10987 10987 10987 10987 10986 10986 10986 10986 10986 10985 10985 10984 10983 10982 10981 10980 10979 10978 10976 10975 10974 10973 10972 10971 10970 10969 10967 10966 10964 10963 10961 10960 10958 10956 10954 10953 10951 10949 10947 10945 10943 10941 10940 10938 10936 10935 10933 10932 10930 10929 10928 10926 10924 10922 10920 10919 10917 10915 10914 10912 10910 10907 10905 10903 10902 10900 10898 10897 10895 10893 10891 10890 10888
10985 10985 10986 10986 10986 10986 10986 10986 10986 10986 10986 10986 10986 10986 10986 10986 10986 10985 10985 10985 10985 10984 10984 10983 10982 10981 10980 10979 10977 10976 10975 10974 10973 10972 10971 10969 10968 10967 10966 10964 10962 10961 10959 10958 10957 10955 10953 10951 10949 10947 10945 10943 10941 10939 10938 10936 10934 10932 10930 10929 10928 10926 10925 10924 10922 10920 10918 10916 10914 10913 10911 10909 10907 10905 10903 10901 10899 10898 10896 10894 10892 10890 10888 10887 10885
10984 10984 10984 10984 10984 10985 10985 10985 10985 10985 10985 10985 10985 10985 10985 10985 10984 10984 10984 10984 10983 10983 10982 10981 10981 10979 10978 10977 10976 10975 10973 10972 10971 10970 10969 10968 10966 10965 10964 10962 10961 10959 10958 10956 10955 10953 10951 10949 10947 10944 10943 10941 10939 10937 10935 10933 10931 10929 10928 10926 10925 10924 10922 10921 10919 10917 10915 10913 10912 10910 10909 10907 10905 10903 10900 10898 10896 10895 10893 10891 10889 10887 10885 10883 10881
10982 10983 10983 10983 10983 10983 10983 10983 10984 10984 10984 10984 10984 10984 10984 10983 10983 10983 10982 10982 10982 10981 10981 10980 10979 10977 10976 10975 10974 10973 10972 10971 10970 10969 10967 10966 10965 10963 10962 10960 10959 10958 10956 10955 10953 10951 10948 10946 10944 10942 10940 10938 10936 10934 10932 10930 10928 10926 10925 10923 10921 10920 10919 10918 10916 10914 10912 10910 10909 10907 10906 10904 10902 10900 10897 10895 10893 10891 10890 10888 10886 10883 10881 10879 10877
10980 10981 10981 10981 10981 10981 10981 10982 10982 10982 10982 10982 10982 10982 10982 10981 10981 10981 10981 10980 10980 10979 10978 10977 10976 10975 10974 10973 10972 10971 10970 10969 10968 10967 10965 10964 10963 10961 10960 10958 10957 10956 10954 10952 10950 10948 10946 10944 10941 10939 10937 10935 10933 10931 10929 10927 10925 10923 10921 10919 10918 10916 10915 10914 10913 10911 10909 10908 10906 10904 10903 10901 10899 10896 10894 10892 10890 10888 10886 10884 10882 10880 10878 10876 10874
10978 10979 10980 10980 10980 10980 10980 10980 10980 10980 10980 10980 10980 10980 10979 10979 10979 10979 10978 10978 10977 10977 10976 10975 10974 10973 10972 10971 10970 10969 10968 10967 10966 10964 10963 10962 10960 10959 10957 10956 10955 10953 10951 10949 10947 10945 10942 10940 10938 10935 10933 10931 10929 10927 10925 10923 10921 10919 10918 10916 10915 10913 10912 10911 10909 10908 10906 10905 10903 10901 10899 10897 10895 10893 10890 10888 10886 10884 10882 10880 10878 10876 10874 10872 10870
10976 10977 10978 10978 10978 10978 10978 10978 10978 10978 10978 10978 10978 10977 10977 10977 10976 10976 10976 10975 10975 10974 10973 10973 10972 10971 10970 10969 10968 10967 10965 10964 10963 10962 10961 10960 10958 10957 10955 10954 10952 10951 10948 10946 10943 10941 10939 10937 10934 10932 10930 10928 10926 10924 10922 10920 10919 10917 10915 10913 10912 10911 10909 10908 10906 10905 10903 10902 10900 10898 10896 10894 10892 10889 10887 10885 10883 10881 10879 10877 10875 10873 10871 10869 10867
10975 10976 10976 10976 10976 10976 10976 10976 10976 10976 10975 10975 10975 10975 10975 10974 10974 10973 10973 10973 10972 10971 10971 10970 10969 10969 10968 10967 10966 10964 10963 10962 10961 10960 10958 10957 10956 10954 10953 10951 10950 10948 10945 10943 10940 10938 10936 10934 10931 10929 10927 10925 10923 10921 10919 10918 10916 10914 10912 10911 10909 10907 10905 10904 10903 10901 10899 10898 10896 10894 10891 10889 10887 10885 10883 10881 10879 10877 10876 10874 10872 10869 10867 10865 10863
10972 10972 10973 10974 10974 10974 10974 10974 10974 10973 10973 10973 10973 10972 10972 10972 10971 10971 10970 10970 10970 10969 10968 10967 10967 10966 10965 10964 10963 10961 10960 10959 10957 10957 10956 10955 10954 10952 10950 10949 10947 10945 10942 10940 10937 10935 10933 10931 10929 10926 10924 10922 10920 10918 10916 10915 10913 10911 10909 10907 10905 10903 10901 10900 10898 10897 10895 10893 10891 10889 10887 10884 10882 10881 10878 10876 10875 10873 10871 10869 10867 10865 10863 10860 10859
10968 10969 10970 10972 10972 10972 10972 10972 10971 10971 10971 10971 10970 10970 10970 10969 10969 10968 10968 10967 10967 10966 10965 10965 10964 10964 10963 10961 10960 10958 10956 10955 10954 10954 10953 10952 10951 10949 10947 10945 10943 10941 10939 10936 10934 10932 10929 10927 10925 10923 10921 10919 10917 10915 10913 10912 10910 10908 10906 10905 10903 10900 10898 10896 10894 10892 10891 10888 10886 10885 10882 10880 10878 10876 10874 10871 10870 10868 10866 10864 10862 10860 10857 10855 10854
10965 10966 10967 10968 10968 10969 10969 10969 10969 10968 10968 10967 10967 10967 10967 10966 10966 10965 10965 10965 10964 10963 10962 10962 10961 10961 10960 10958 10956 10955 10953 10952 10951 10951 10950 10949 10948 10945 10943 10941 10939 10937 10935 10932 10930 10929 10926 10924 10921 10919 10917 10916 10914 10912 10911 10909 10907 10905 10903 10902 10899 10897 10895 10893 10890 10888 10886 10884 10882 10880 10878 10875 10874 10872 10869 10866 10864 10862 10860 10858 10856 10854 10852 10850 10848
10962 10962 10964 10964 10965 10965 10966 10966 10965 10965 10965 10964 10964 10964 10964 10964 10963 10962 10962 10961 10961 10960 10959 10958 10958 10957 10956 10955 10953 10951 10950 10949 10948 10948 10947 10946 10945 10942 10940 10938 10936 10934 10931 10929 10927 10925 10923 10921 10919 10916 10914 10913 10912 10910 10908 10906 10904 10902 10900 10898 10896 10894 10892 10890 10887 10884 10882 10879 10877 10875 10873 10871 10870 10868 10865 10861 10859 10856 10854 10852 10850 10848 10845 10844 10842
10959 10959 10960 10960 10961 10962 10962 10962 10962 10961 10961 10961 10960 10961 10961 10960 10960 10959 10959 10958 10958 10957 10956 10955 10955 10954 10953 10951 10949 10947 10946 10945 10945 10944 10944 10942 10941 10939 10936 10934 10932 10930 10928 10926 10924 10921 10919 10917 10915 10913 10910 10910 10909 10907 10906 10904 10902 10900 10897 10894 10892 10890 10888 10885 10883 10881 10878 10875 10873 10871 10869 10866 10864 10863 10860 10857 10854 10851 10849 10846 10844 10842 10839 10837 10836
10955 10955 10956 10956 10956 10957 10958 10958 10958 10958 10958 10957 10957 10957 10957 10957 10956 10956 10955 10955 10954 10953 10953 10952 10951 10950 10949 10947 10945 10943 10943 10942 10942 10941 10940 10938 10936 10935 10933 10931 10928 10926 10924 10923 10921 10918 10916 10913 10911 10909 10907 10905 10904 10903 10902 10900 10898 10896 10894 10891 10888 10885 10883 10880 10878 10876 10874 10871 10869 10867 10864 10861 10859 10857 10855 10852 10849 10846 10843 10840 10838 10836 10834 10832 10830
10952 10952 10952 10952 10952 10953 10954 10954 10954 10954 10954 10954 10953 10953 10953 10953 10953 10953 10952 10951 10951 10950 10949 10949 10948 10947 10945 10943 10941 10940 10940 10939 10938 10937 10936 10934 10933 10930 10928 10926 10924 10922 10921 10919 10917 10915 10913 10911 10908 10906 10903 10901 10899 10898 10896 10894 10892 10890 10888 10887 10884 10881 10878 10875 10873 10871 10869 10867 10864 10862 10858 10855 10853 10851 10849 10846 10843 10841 10838 10835 10833 10831 10829 10827 10824
10947 10949 10949 10949 10949 10949 10950 10950 10950 10950 10950 10950 10950 10950 10949 10949 10949 10949 10948 10948 10947 10946 10946 10945 10944 10943 10941 10939 10937 10936 10936 10936 10934 10933 10931 10930 10929 10926 10924 10922 10920 10918 10916 10915 10913 10910 10908 10906 10905 10903 10900 10897 10895 10893 10892 10890 10887 10885 10883 10881 10879 10876 10874 10871 10868 10865 10863 10860 10858 10856 10853 10849 10846 10844 10842 10840 10837 10835 10832 10830 10829 10827 10823 10821 10819
10942 10945 10946 10945 10944 10945 10946 10946 10946 10946 10946 10946 10946 10946 10946 10946 10945 10944 10944 10943 10943 10942 10942 10941 10939 10938 10936 10935 10934 10933 10932 10931 10930 10928 10927 10926 10924 10921 10919 10918 10915 10913 10911 10910 10909 10907 10904 10902 10901 10899 10897 10894 10892 10891 10889 10886 10883 10881 10879 10876 10874 10872 10869 10866 10863 10860 10857 10854 10851 10849 10847 10843 10840 10838 10836 10834 10832 10829 10827 10824 10823 10821 10818 10815 10812
10937 10939 10940 10940 10939 10941 10941 10942 10942 10942 10943 10943 10943 10943 10943 10942 10941 10940 10940 10939 10938 10938 10937 10936 10935 10933 10932 10931 10930 10929 10928 10927 10925 10923 10922 10921 10920 10917 10915 10913 10911 10909 10907 10906 10905 10903 10902 10900 10898 10896 10893 10890 10889 10887 10884 10882 10879 10876 10874 10871 10869 10867 10864 10862 10859 10856 10853 10849 10846 10843 10840 10836 10834 10832 10830 10828 10826 10823 10820 10818 10816 10815 10813 10810 10806
10931 10932 10934 10935 10935 10936 10936 10937 10938 10938 10938 10938 10939 10939 10938 10938 10937 10936 10936 10935 10934 10934 10933 10932 10930 10929 10927 10927 10926 10925 10924 10922 10920 10918 10917 10916 10915 10913 10911 10910 10906 10903 10901 10900 10900 10899 10897 10896 10894 10892 10889 10886 10884 10882 10879 10877 10874 10871 10869 10866 10864 10862 10860 10857 10853 10850 10848 10844 10841 10838 10834 10830 10828 10826 10824 10821 10819 10816 10814 10812 10810 10809 10807 10804 10800
10926 10927 10929 10930 10931 10931 10932 10932 10933 10933 10934 10933 10934 10934 10934 10933 10933 10932 10932 10931 10930 10930 10929 10927 10926 10924 10923 10923 10923 10921 10919 10917 10914 10911 10910 10911 10910 10908 10907 10906 10904 10901 10897 10895 10894 10893 10892 10890 10888 10886 10884 10881 10879 10877 10874 10871 10869 10866 10863 10860 10858 10857 10854 10851 10847 10844 10841 10838 10835 10832 10828 10825 10823 10820 10818 10815 10812 10810 10808 10805 10804 10802 10799 10796 10792
10921 10923 10925 10926 10927 10926 10927 10927 10928 10928 10929 10928 10928 10929 10928 10928 10928 10927 10927 10926 10925 10924 10923 10922 10921 10920 10919 10919 10919 10917 10915 10913 10909 10906 10904 10904 10904 10903 10902 10901 10900 10897 10894 10891 10889 10887 10886 10885 10883 10881 10879 10876 10874 10871 10867 10864 10862 10860 10857 10853 10850 10848 10846 10843 10840 10837 10834 10831 10829 10825 10822 10820 10817 10814 10812 10810 10807 10804 10800 10797 10795 10793 10790 10787 10783
10914 10917 10920 10921 10921 10921 10922 10922 10923 10923 10923 10923 10923 10924 10923 10922 10922 10922 10921 10921 10920 10918 10917 10917 10916 10915 10915 10914 10914 10913 10910 10908 10905 10902 10900 10898 10898 10898 10896 10895 10894 10892 10889 10887 10884 10882 10880 10878 10877 10875 10873 10871 10868 10865 10861 10857 10854 10852 10850 10847 10843 10840 10838 10836 10833 10829 10827 10824 10821 10819 10816 10814 10811 10808 10805 10803 10800 10797 10793 10789 10786 10784 10781 10778 10774
10908 10910 10913 10915 10915 10916 10916 10917 10918 10918 10918 10918 10918 10918 10918 10917 10917 10916 10916 10915 10914 10912 10912 10911 10911 10910 10910 10909 10909 10908 10906 10904 10901 10898 10896 10894 10893 10892 10890 10889 10888 10886 10884 10882 10879 10877 10874 10873 10871 10868 10867 10865 10862 10859 10855 10851 10847 10844 10842 10839 10836 10833 10831 10828 10825 10822 10820 10818 10815 10812 10810 10808 10805 10802 10798 10796 10793 10790 10786 10782 10778 10775 10772 10768 10765
10902 10903 10906 10908 10908 10910 10911 10911 10912 10912 10912 10912 10913 10913 10912 10912 10911 10910 10909 10909 10907 10906 10906 10906 10905 10904 10904 10903 10903 10902 10900 10898 10896 10894 10891 10888 10888 10887 10886 10884 10882 10880 10878 10876 10874 10871 10869 10867 10865 10862 10860 10858 10855 10852 10849 10845 10841 10837 10834 10832 10828 10826 10824 10822 10818 10815 10813 10811 10809 10806 10804 10802 10799 10796 10793 10790 10786 10781 10776 10772 10768 10765 10762 10759 10756
10894 10896 10900 10901 10902 10904 10905 10906 10906 10906 10907 10907 10907 10907 10906 10906 10905 10903 10903 10903 10901 10899 10899 10900 10899 10899 10898 10896 10895 10895 10894 10892 10891 10889 10886 10883 10883 10883 10881 10879 10877 10875 10873 10871 10869 10866 10863 10861 10859 10856 10854 10851 10848 10845 10842 10839 10835 10831 10828 10825 10821 10817 10816 10815 10812 10809 10807 10804 10802 10800 10797 10795 10792 10791 10789 10786 10779 10772 10767 10762 10758 10756 10753 10750 10746
10887 10891 10895 10895 10896 10898 10898 10899 10900 10900 10902 10901 10901 10901 10900 10899 10898 10897 10896 10895 10893 10892 10893 10894 10894 10892 10891 10889 10887 10887 10887 10886 10885 10883 10882 10879 10878 10877 10876 10874 10872 10870 10868 10866 10863 10861 10858 10856 10854 10851 10848 10845 10842 10838 10835 10832 10829 10825 10822 10819 10815 10810 10808 10808 10805 10801 10799 10796 10794 10792 10789 10787 10785 10784 10784 10782 10776 10768 10762 10756 10751 10749 10746 10742 10737
10882 10886 10889 10889 10889 10891 10891 10893 10894 10895 10896 10895 10895 10895 10893 10892 10891 10890 10889 10888 10887 10886 10886 10887 10887 10886 10885 10882 10881 10881 10881 10880 10879 10878 10876 10875 10873 10871 10870 10868 10866 10864 10862 10859 10857 10855 10852 10849 10847 10844 10841 10839 10835 10831 10828 10826 10822 10818 10815 10813 10809 10804 10802 10801 10798 10794 10791 10788 10786 10784 10780 10778 10777 10776 10775 10774 10770 10765 10758 10751 10745 10742 10739 10734 10728
10877 10879 10880 10880 10881 10883 10885 10886 10887 10888 10889 10889 10888 10887 10886 10885 10884 10883 10883 10882 10882 10881 10879 10879 10880 10880 10878 10876 10874 10874 10874 10873 10872 10871 10870 10870 10868 10865 10863 10862 10859 10857 10855 10852 10849 10848 10845 10842 10840 10836 10833 10831 10828 10824 10820 10818 10815 10811 10808 10806 10802 10798 10796 10794 10791 10788 10785 10781 10777 10775 10772 10768 10767 10766 10764 10762 10761 10758 10753 10745 10737 10733 10729 10724 10719
10870 10871 10872 10873 10873 10874 10877 10878 10879 10881 10883 10883 10881 10879 10878 10878 10876 10875 10876 10876 10876 10875 10873 10872 10872 10872 10870 10868 10868 10867 10866 10865 10864 10864 10864 10863 10861 10859 10857 10855 10852 10849 10847 10844 10841 10840 10838 10835 10832 10829 10826 10824 10822 10818 10814 10811 10808 10805 10802 10799 10796 10793 10790 10787 10784 10782 10779 10774 10770 10767 10764 10760 10757 10755 10752 10750 10751 10750 10745 10738 10730 10724 10720 10715 10710
10862 10864 10865 10865 10865 10866 10868 10869 10871 10874 10876 10875 10873 10872 10871 10871 10869 10868 10868 10869 10869 10869 10868 10866 10865 10864 10862 10861 10861 10860 10858 10856 10855 10856 10856 10855 10853 10851 10849 10848 10845 10842 10839 10836 10833 10831 10829 10827 10825 10822 10819 10817 10815 10813 10810 10805 10801 10798 10795 10792 10790 10787 10783 10780 10777 10775 10771 10767 10762 10759 10756 10752 10749 10746 10742 10741 10742 10740 10735 10730 10724 10717 10711 10706 10701
10854 10855 10857 10858 10859 10860 10859 10859 10862 10866 10868 10868 10866 10865 10864 10864 10863 10861 10860 10861 10862 10862 10861 10859 10858 10857 10856 10854 10853 10852 10849 10848 10847 10847 10847 10845 10843 10842 10840 10838 10835 10832 10830 10828 10825 10823 10821 10820 10818 10814 10812 10811 10807 10805 10803 10800 10796 10792 10789 10785 10782 10779 10776 10773 10770 10766 10763 10759 10755 10751 10748 10744 10741 10738 10735 10733 10731 10728 10724 10720 10716 10710 10704 10698 10693
10844 10845 10849 10851 10852 10853 10850 10850 10854 10857 10860 10861 10860 10859 10858 10857 10855 10854 10853 10854 10856 10855 10853 10852 10851 10851 10850 10848 10846 10844 10842 10841 10840 10840 10838 10835 10834 10833 10831 10829 10826 10823 10820 10818 10817 10814 10812 10811 10810 10806 10804 10803 10800 10796 10794 10792 10789 10784 10780 10777 10773 10770 10767 10763 10759 10755 10752 10749 10746 10742 10739 10736 10731 10727 10724 10722 10719 10716 10712 10709 10705 10700 10695 10689 10684
10835 10838 10842 10843 10845 10846 10843 10842 10845 10848 10851 10854 10853 10852 10851 10849 10848 10847 10848 10849 10849 10848 10846 10845 10844 10844 10843 10841 10839 10837 10836 10835 10834 10833 10831 10828 10826 10825 10823 10822 10820 10815 10812 10810 10809 10806 10803 10802 10801 10798 10795 10793 10791 10788 10785 10783 10779 10775 10771 10768 10765 10762 10758 10754 10750 10745 10741 10738 10735 10732 10728 10725 10722 10719 10714 10711 10707 10704 10701 10698 10694 10689 10685 10679 10674
10826 10829 10834 10836 10837 10838 10835 10833 10837 10840 10842 10845 10847 10846 10845 10842 10841 10842 10844 10844 10843 10841 10839 10838 10838 10838 10836 10834 10833 10831 10830 10829 10828 10828 10826 10823 10821 10819 10816 10815 10814 10810 10806 10805 10803 10799 10796 10794 10792 10790 10787 10785 10783 10780 10777 10774 10771 10767 10764 10760 10757 10754 10751 10746 10743 10739 10735 10730 10726 10723 10719 10715 10712 10710 10706 10702 10698 10694 10690 10686 10682 10678 10673 10668 10662
10817 10822 10827 10828 10828 10829 10829 10827 10829 10830 10832 10837 10841 10840 10837 10836 10836 10837 10838 10838 10837 10834 10833 10832 10832 10831 10830 10829 10827 10825 10824 10823 10822 10821 10820 10818 10816 10814 10811 10809 10808 10804 10800 10799 10797 10793 10790 10787 10785 10782 10780 10777 10775 10772 10769 10765 10762 10758 10756 10753 10749 10746 10743 10738 10734 10731 10727 10723 10719 10715 10712 10708 10704 10701 10698 10693 10688 10684 10679 10675 10670 10666 10661 10656 10651
10811 10815 10818 10818 10818 10821 10823 10822 10820 10819 10823 10829 10833 10832 10830 10830 10831 10832 10832 10831 10830 10828 10827 10826 10826 10826 10825 10822 10820 10819 10818 10816 10815 10814 10812 10811 10809 10807 10805 10803 10801 10798 10795 10792 10790 10787 10784 10781 10777 10775 10771 10769 10768 10765 10761 10758 10754 10751 10747 10745 10741 10737 10733 10730 10726 10722 10717 10714 10710 10707 10703 10700 10696 10692 10688 10683 10678 10673 10668 10664 10659 10655 10650 10645 10641
10802 10804 10807 10810 10812 10814 10816 10816 10814 10812 10815 10820 10823 10824 10824 10824 10824 10825 10824 10823 10822 10822 10821 10821 10821 10820 10818 10816 10814 10813 10811 10809 10807 10805 10804 10803 10802 10800 10798 10796 10794 10792 10788 10786 10783 10780 10777 10773 10770 10767 10763 10760 10759 10758 10754 10751 10747 10743 10740 10736 10733 10729 10724 10721 10718 10713 10708 10704 10701 10698 10694 10690 10687 10682 10677 10672 10667 10661 10656 10652 10647 10643 10639 10634 10630
10791 10795 10799 10803 10805 10805 10807 10809 10808 10806 10807 10811 10815 10817 10817 10817 10817 10818 10817 10816 10815 10815 10815 10816 10815 10813 10811 10810 10809 10807 10804 10801 10798 10797 10796 10795 10794 10792 10790 10788 10786 10784 10781 10778 10776 10773 10770 10766 10762 10759 10755 10751 10749 10748 10746 10742 10738 10735 10731 10727 10723 10720 10715 10711 10708 10704 10699 10695 10692 10688 10684 10679 10674 10670 10665 10660 10654 10649 10644 10640 10635 10631 10627 10623 10618
10782 10787 10792 10795 10796 10798 10799 10801 10800 10801 10802 10804 10807 10809 10810 10810 10810 10810 10809 10809 10809 10809 10809 10809 10808 10806 10804 10803 10802 10800 10796 10792 10790 10789 10789 10787 10786 10784 10782 10780 10778 10776 10774 10771 10768 10765 10762 10758 10755 10751 10747 10742 10739 10737 10734 10731 10728 10724 10721 10716 10712 10709 10706 10702 10697 10693 10688 10685 10681 10677 10672 10667 10662 10657 10652 10647 10642 10637 10632 10629 10625 10621 10616 10611 10606
10774 10778 10782 10785 10788 10790 10791 10792 10793 10795 10796 10796 10798 10800 10801 10802 10802 10802 10802 10802 10802 10802 10802 10801 10800 10799 10798 10796 10795 10792 10789 10785 10783 10783 10782 10780 10778 10776 10773 10772 10770 10768 10766 10763 10759 10757 10754 10750 10747 10744 10740 10735 10731 10727 10724 10721 10717 10713 10710 10707 10703 10699 10696 10693 10689 10683 10678 10674 10670 10665 10661 10656 10650 10645 10640 10636 10632 10627 10622 10618 10614 10611 10606 10600 10595
10765 10769 10773 10777 10780 10782 10783 10784 10786 10787 10787 10788 10790 10791 10793 10794 10793 10793 10793 10793 10793 10794 10794 10792 10791 10791 10791 10789 10787 10785 10781 10777 10776 10776 10774 10772 10770 10768 10766 10764 10762 10760 10757 10754 10751 10749 10746 10743 10739 10735 10731 10728 10724 10720 10716 10712 10707 10703 10700 10697 10693 10689 10686 10683 10679 10674 10669 10665 10659 10655 10651 10646 10639 10634 10630 10626 10623 10619 10613 10607 10603 10599 10594 10589 10583
10757 10761 10765 10769 10772 10774 10775 10776 10777 10777 10778 10779 10781 10783 10784 10785 10784 10784 10783 10783 10784 10786 10786 10784 10783 10783 10783 10781 10779 10777 10773 10769 10768 10768 10766 10764 10762 10759 10757 10755 10753 10751 10748 10745 10743 10741 10739 10735 10731 10726 10723 10720 10716 10712 10708 10704 10699 10694 10690 10687 10683 10679 10675 10672 10668 10663 10658 10654 10649 10644 10641 10636 10630 10623 10619 10615 10613 10609 10604 10597 10592 10586 10581 10576 10571
10750 10753 10757 10760 10762 10764 10766 10766 10767 10769 10770 10771 10774 10775 10775 10775 10775 10774 10774 10774 10774 10776 10777 10777 10775 10774 10774 10772 10770 10767 10764 10761 10760 10760 10758 10756 10753 10751 10749 10747 10745 10742 10739 10736 10733 10731 10729 10726 10722 10718 10714 10711 10707 10703 10699 10695 10690 10686 10682 10677 10673 10669 10664 10660 10656 10653 10648 10644 10639 10634 10629 10625 10620 10613 10607 10603 10600 10597 10592 10586 10580 10574 10568 10563 10558
10742 10745 10748 10751 10753 10756 10757 10758 10759 10761 10763 10764 10765 10766 10767 10767 10766 10764 10764 10764 10764 10765 10766 10766 10766 10766 10766 10764 10760 10758 10756 10754 10753 10752 10750 10748 10745 10743 10741 10739 10736 10733 10730 10727 10724 10721 10719 10716 10711 10708 10706 10702 10698 10694 10690 10686 10681 10677 10672 10667 10663 10658 10653 10648 10645 10642 10638 10635 10631 10626 10620 10614 10609 10603 10597 10592 10587 10584 10580 10575 10569 10563 10556 10550 10545
10734 10738 10740 10743 10745 10747 10749 10750 10753 10754 10756 10757 10757 10758 10759 10759 10757 10755 10754 10754 10754 10754 10754 10756 10756 10756 10756 10754 10750 10748 10748 10747 10745 10743 10742 10740 10737 10735 10732 10730 10727 10724 10721 10718 10714 10711 10709 10705 10701 10698 10696 10692 10688 10684 10680 10676 10671 10667 10662 10657 10652 10647 10643 10638 10633 10630 10627 10623 10620 10616 10610 10604 10598 10592 10586 10582 10576 10571 10567 10562 10556 10551 10545 10540 10534